Погода в Стогинском

Россия / Ярославская область     57°14′13″N   40°03′13″E
темп.,
°C
ветер,
м/с
пор.,
м/с
влажн.,
%
обл.,
%
осадки,
мм/ч
давл.,
гПа
погр.,
м
1 декабря, ср
ср100:00−3юз91590100 1.1 9751042
03:00−4юз81491100 1.6 9801108
06:00−3зюз71481100 0.9 9811105
09:00−3юз51193100 1.6 9841111
12:00−3юз51092100 1.1 986943
15:00−4зюз5992100 2.1 986787
18:00−5зюз4994100 0.7 988692
21:00−5зюз4992100 1.1 989629
2 декабря, чт
чт200:00−5з5992100 0.3 992682
03:00−7з51089100 0.4 995572
06:00−9з5109196 0.0 997473
09:00−9зюз4991100 0.0 1000477
12:00−8зюз4684100 0.0 1001434
15:00−6ююз3684100 0.0 1001391
18:00−6ю41091100 0.2 1000489
21:00−5ю4119298 1.1 999617
3 декабря, пт
пт300:00−4ю41095100 0.4 998417
03:00−1ююз41294100 0.9 999532
06:00+1юз51193100 0.2 999894
09:00+1юз51288100 0.2 1001720
12:00+1юз4108699 0.1 1003631
15:00+1ю4991100 0.1 1003398
18:000юв4996100 0.1 1002312
21:000ююв51498100 4.6 999766
4 декабря, сб
сб400:00+1ю51498100 2.7 998797
03:00+1юз5998100 4.2 998631
06:00−1зюз4995100 0.6 1000672
09:00−2зюз6118589 0.8 1003778
12:00−3зюз5128691 0.0 1005829
15:00−3зюз5128798 0.0 1007868
18:00−3зюз5108598 0.1 1009880
21:00−5юз4119196 0.1 1011506
5 декабря, вс
вс500:00−6юз4109314 0.0 1012369
03:00−6зюз399422 0.0 1014315
06:00−7зюз379520 0.0 1015221
09:00−7юз269664 0.0 1016155
12:00−5зюз359165 0.0 1018284
15:00−6з119786 0.0 101933
18:00−8ссз1199100 0.0 102015
21:00−7ссв1295100 0.0 102177